{"data":{"norad_id":66975,"epoch":"2026-05-24T20:55:13.087200Z","epoch_age_seconds":79938,"freshness":"FRESH","line1":"1 66975U 25288S   26144.87167925  .00014377  00000+0  53045-3 0  9991","line2":"2 66975  43.0015 313.6362 0001308 268.4997  91.5705 15.27611525 26931","mean_motion":15.27611525,"eccentricity":0.0001308,"inclination_deg":43.0015,"raan_deg":313.6362,"arg_perigee_deg":268.4997,"mean_anomaly_deg":91.5705,"bstar":0.00053045,"rev_number":2693,"period_min":94.264803350446,"perigee_km":482.05726967756,"apogee_km":483.8521312664,"semimajor_km":6861.091700472,"source":"CELESTRAK","updated_at":"2026-05-25T13:38:21.424604Z"}}